{"data":{"norad_id":35755,"intl_designator":"2009-044A","name":"JCSAT-12 (JCSAT-RA)","alt_names":[],"object_type":"PAYLOAD","status":"ACTIVE","operator":null,"country":"JPN","launch_date":"2009-08-21","launch_site_code":"FRGUI","launch_vehicle":null,"mission":null,"orbit_class":"UNKNOWN","rcs_meters":50.1187,"size_class":null,"mass_kg":null,"dimensions":null,"purposes":["comms"],"wikipedia_slug":null,"has_3d_model":false,"image_url":null,"decayed_at":null,"tle_current":{"epoch":"2026-09-20T00:26:30.838272Z","epoch_age_seconds":63615,"freshness":"FRESH","line1":"1 35755U 09044A   26263.01841248 -.00000332  00000+0  00000+0 0  9996","line2":"2 35755   0.0345 273.3567 0001969 310.6841 273.5759  1.00270482 62561","mean_motion":1.00270482,"eccentricity":0.0001969,"inclination_deg":0.0345,"raan_deg":273.3567,"arg_perigee_deg":310.6841,"mean_anomaly_deg":273.5759,"bstar":0,"rev_number":6256,"period_min":1436.1155658951,"perigee_km":35778.657935699,"apogee_km":35795.262550994,"semimajor_km":42165.097243347,"source":"CELESTRAK","updated_at":"2026-09-20T09:00:35.158919Z"}}}